Temp
79 79 77 75 74 73 71 73 74 74 75 76 75 74 73 71 72 71 70 70 69 66
79 80 76 76 75 75 75 76 75 76 75 75 76 75 73 70 70 70 69 69 69 67
80 81 78 78 76 76 75 76 76 75 75 75 75 74 72 70 71 69 67 67 68 66
80 79 79 77 76 76 76 76 76 77 75 75 73 73 71 72 71 68 67 67 66 64
77 77 76 75 75 77 76 77 78 77 76 76 76 73 72 71 71 69 67 65 63 64
72 74 75 74 76 77 77 77 78 78 77 75 73 71 73 73 71 69 67 65 63 64
75 76 76 76 77 77 78 77 77 76 76 74 75 75 74 73 70 67 66 64 63 65
76 77 77 76 76 77 76 76 75 73 73 73 73 71 70 70 67 65 62 62 63 65
78 78 76 76 75 73 72 73 72 72 72 68 70 50 53 64 66 65 64 63 63 64
78 77 73 75 73 70 71 71 70 71 70 67 63 49 51 58 67 64 63 64 64 66
78 75 72 72 69 69 71 70 69 69 69 67 60 50 51 52 66 64 62 64 66 66
75 73 72 71 69 70 70 68 69 70 69 66 62 48 50 58 66 62 61 62 65 65
76 74 72 70 69 70 70 70 69 69 68 58 62 47 51 61 65 61 59 60 61 50
75 75 71 70 71 71 70 70 68 67 66 65 63 57 51 53 63 61 60 59 60 58
MSLP
998.08 998.37 998.96 999.48 1000.46 1001.50 1002.32 1002.93 1003.24 1003.69 1003.91 1004.19 1004.61 1005.10 1005.57 1006.16 1006.52 1006.81 1007.22 1007.49 1007.63 1008.09
997.61 998.00 998.68 999.37 1000.36 1001.13 1001.70 1002.28 1002.88 1003.26 1003.57 1004.03 1004.36 1004.90 1005.45 1005.88 1006.35 1006.63 1006.97 1007.30 1007.59 1008.06
997.22 997.65 998.32 999.04 1000.06 1000.66 1001.26 1001.90 1002.54 1002.98 1003.47 1003.83 1004.21 1004.85 1005.43 1005.84 1006.06 1006.52 1006.98 1007.39 1007.67 1008.20
997.33 997.75 998.39 999.20 999.84 1000.49 1001.17 1001.87 1002.44 1002.93 1003.32 1003.76 1004.29 1004.76 1005.27 1005.56 1005.99 1006.53 1006.91 1007.32 1007.70 1008.15
997.54 998.16 998.79 999.45 1000.17 1000.65 1001.36 1001.85 1002.32 1002.78 1003.30 1003.73 1004.09 1004.54 1005.11 1005.63 1005.72 1006.25 1006.66 1007.15 1007.76 1008.04
998.04 998.62 999.15 999.75 1000.33 1000.86 1001.51 1001.89 1002.16 1002.62 1003.16 1003.56 1004.13 1004.68 1005.03 1005.21 1005.52 1005.91 1006.33 1007.02 1007.52 1007.81
998.41 999.07 999.64 1000.14 1000.62 1001.11 1001.55 1002.00 1002.40 1002.82 1003.24 1003.68 1004.07 1004.36 1004.73 1005.21 1005.57 1006.02 1006.50 1007.01 1007.36 1007.60
998.74 999.36 999.90 1000.38 1000.86 1001.28 1001.78 1002.07 1002.50 1003.01 1003.46 1003.86 1004.40 1004.95 1005.15 1005.43 1005.92 1006.37 1006.85 1007.25 1007.49 1007.54
998.92 999.51 1000.04 1000.55 1001.08 1001.61 1001.98 1002.31 1002.79 1003.26 1003.78 1004.62 1005.26 1005.90 1005.77 1005.84 1006.37 1006.60 1006.90 1007.23 1007.45 1007.58
998.98 999.63 1000.19 1000.88 1001.44 1002.01 1002.30 1002.77 1003.24 1003.65 1004.11 1005.08 1005.87 1006.21 1006.17 1006.31 1006.39 1006.82 1007.04 1007.21 1007.28 1007.36
999.20 1000.02 1000.69 1001.20 1001.86 1002.20 1002.63 1003.15 1003.55 1003.99 1004.65 1005.44 1006.30 1006.63 1006.63 1006.57 1006.61 1007.08 1007.36 1007.33 1007.37 1007.45
999.52 1000.31 1000.94 1001.54 1002.05 1002.48 1002.91 1003.57 1003.99 1004.30 1004.90 1005.65 1006.50 1006.95 1006.79 1006.69 1006.86 1007.40 1007.77 1007.89 1007.85 1007.98
999.63 1000.39 1001.10 1001.81 1002.16 1002.71 1003.27 1003.59 1004.08 1004.57 1005.16 1005.94 1006.63 1007.06 1006.93 1006.90 1007.16 1007.73 1008.10 1008.36 1008.51 1008.53
999.67 1000.34 1001.15 1001.91 1002.33 1002.86 1003.26 1003.58 1004.27 1004.96 1005.47 1006.13 1006.67 1007.25 1007.28 1007.45 1007.62 1007.92 1008.29 1008.65 1008.91 1009.29
Wind_Speed
11 6 7 10 9 7 7 8 10 10 10 9 7 6 6 5 4 4 4 3 2 3
10 9 11 12 12 10 11 9 11 11 9 8 9 7 6 3 4 6 5 4 3 2
10 8 13 11 13 12 10 11 11 9 8 7 6 7 6 5 6 6 4 4 5 3
9 10 12 12 10 9 10 11 10 9 6 6 6 6 6 3 5 5 6 5 5 4
12 11 11 12 11 10 10 8 8 8 9 8 5 6 5 4 5 6 7 7 6 4
9 10 10 10 10 9 8 6 7 6 5 5 6 6 6 5 4 5 6 7 6 5
11 11 10 10 9 8 6 6 6 6 6 7 5 5 3 4 1 6 6 5 4 3
11 11 10 9 7 7 7 6 6 7 6 6 6 6 5 6 6 6 5 4 4 5
11 10 8 7 7 7 6 8 8 7 6 10 7 7 8 7 5 6 6 5 4 5
10 9 6 8 6 7 7 7 6 6 7 9 6 8 7 6 5 6 5 4 4 4
11 9 8 6 8 6 6 7 5 7 9 8 6 6 5 3 7 6 3 1 2 4
12 8 8 6 8 6 6 6 5 6 10 9 6 4 3 3 6 6 4 4 4 5
13 10 7 10 8 5 6 5 5 8 9 10 7 3 4 4 5 5 3 3 4 4
12 10 9 9 7 5 5 7 9 10 8 8 7 4 5 7 5 4 4 4 3 5
Wind_Direction
210 181 137 139 143 156 166 189 182 191 193 186 160 167 158 157 166 166 188 206 177 77
189 188 150 149 158 171 175 179 176 189 166 174 166 153 133 157 193 183 159 145 135 124
173 169 153 157 165 163 158 169 164 162 162 158 151 133 148 216 178 141 146 153 165 154
167 131 132 139 134 136 144 145 155 156 144 156 152 178 176 144 136 150 161 184 127 142
123 126 120 117 130 136 134 147 156 153 172 180 156 163 142 205 215 191 188 137 147 191
119 123 121 123 128 134 148 167 149 120 154 153 119 151 192 197 213 172 194 152 166 195
133 135 133 135 144 138 135 127 132 168 118 122 142 181 146 122 108 105 134 140 160 234
134 137 136 139 131 134 141 163 136 100 106 118 72 46 49 78 66 116 124 140 190 254
146 142 130 132 145 144 111 94 102 107 102 83 80 64 58 103 135 151 162 159 200 165
142 136 123 121 144 115 114 104 115 112 98 97 99 71 66 43 118 109 104 145 180 162
118 115 120 148 112 117 114 105 104 99 105 102 88 78 59 8 116 109 105 89 109 107
132 131 141 125 126 127 114 129 146 122 109 108 105 78 38 130 126 112 101 81 38 37
151 148 138 130 131 122 134 158 135 104 105 105 116 90 64 99 106 112 106 82 76 13
127 146 121 136 130 138 183 124 119 103 107 116 118 98 114 119 120 133 115 114 83 75